Weather in Velegozh

Russia / Tula Oblast     54°41′50″N   37°16′12″E
temp.,
°C
wind,
m/s
gust,
m/s
humid.,
%
clouds,
%
prec.,
mm/h
press.,
hPa
HPBL,
m
9 may, sun
sun900:00+7nw51097100 1.4 1002590
03:00+5nw61196100 1.8 1005773
06:00+3nw71497100 1.8 1008745
09:00+3nw71497100 6.4 1011852
12:00+5nnw71088100 1.9 10131051
15:00+7nw71075100 2.0 10161309
18:00+9nnw61166100 0.1 1017905
21:00+5nw34785 0.1 102061
10 may, mon
mon1000:00+4nw413813 0.0 1022245
03:00+2nw39830 0.0 1025168
06:00+2nnw27840 0.0 1027191
09:00+9n58550 0.0 1028963
12:00+11nne57450 0.0 10281415
15:00+13nne57470 0.0 10281529
18:00+12nne48590 0.0 1027585
21:00+7ne33760 0.0 102947
11 may, tue
tue1100:00+4ne37810 0.0 1029116
03:00+3nne310850 0.0 1029162
06:00+4ne413810 0.0 1029313
09:00+11ne611671 0.0 1028626
12:00+15ne68615 0.0 1027765
15:00+17ene686016 0.0 10261105
18:00+16ene4972100 0.0 1026474
21:00+12ne369110 0.0 102695
12 may, wed
wed1200:00+11ne4129452 0.0 1025285
03:00+11ene41297100 0.0 1024331
06:00+12ene51196100 0.0 1024572
09:00+12e2797100 0.6 1023407
12:00+11n2396100 2.3 1024149
15:00+15ese467990 2.4 1023938
18:00+13e3893100 0.1 1022424
21:00+13e259787 0.1 1022148
13 may, thu
thu1300:00+12ene2598100 0.4 1021167
03:00+12ese3798100 0.9 1020252
06:00+12ese3897100 0.3 1019319
09:00+13ese4796100 0.6 1019482
12:00+16se468445 0.3 1019716
15:00+17se567828 2.1 1018883
18:00+17ese458065 1.2 1017448
21:00+13ese3896100 1.5 1017158